Location: Newark
(46.7000°N, 60.6000°W)
Time: 21:31:35
(UTC+00:00)

Vanguard 1 Rocket - Pass Details

Date: 03 November 2020
Orbit: 656 x 4221 km, 34.3° (Epoch: 30 November)

Event Time Altitude Azimuth Distance (km) Brightness Sun altitude
Rises 12:02:33 0° 223° (SW) 4,891 11.1 10.3°
Reaches altitude 10° 12:07:36 10° 206° (SSW) 3,258 10.4 11.0°
Maximum altitude 12:12:03 17° 169° (S) 2,281 10.4 11.6°
Drops below altitude 10° 12:15:30 10° 130° (SE) 2,401 13.6 12.1°
Sets 12:18:25 0° 107° (ESE) 3,113 11.6 12.5°
